Time,TemperatureF,DewpointF,PressureIn,WindDirection,WindDirectionDegrees,WindSpeedMPH,WindSpeedGustMPH,Humidity,HourlyPrecipIn,Conditions,Clouds,dailyrainin,SolarRadiationWatts/m^2,SoftwareType,DateUTC
2013-07-10 00:00:00,65.0,64.0,-100.00,South,180,2.0,-999.0,95,-99.99,,,-99.99,0.000000,,2013-07-10 04:00:00,
2013-07-10 00:43:00,65.0,64.0,-100.00,South,180,2.0,-999.0,95,-99.99,,,-99.99,0.000000,,2013-07-10 04:43:00,
2013-07-10 00:52:00,65.0,64.0,-100.00,South,180,2.0,-999.0,95,-99.99,,,-99.99,0.000000,,2013-07-10 04:52:00,
2013-07-10 02:00:00,66.0,65.0,-100.00,WSW,247,2.0,-999.0,96,-99.99,,,-99.99,0.000000,,2013-07-10 06:00:00,
2013-07-10 02:42:00,66.0,65.0,-100.00,WSW,247,2.0,-999.0,96,-99.99,,,-99.99,0.000000,,2013-07-10 06:42:00,
2013-07-10 02:52:00,66.0,65.0,-100.00,WSW,247,2.0,-999.0,96,-99.99,,,-99.99,0.000000,,2013-07-10 06:52:00,
2013-07-10 03:00:00,66.0,65.0,-100.00,West,270,4.0,-999.0,95,0.01,,,-99.99,0.000000,,2013-07-10 07:00:00,
2013-07-10 03:43:00,66.0,65.0,-100.00,West,270,4.0,-999.0,95,0.01,,,-99.99,0.000000,,2013-07-10 07:43:00,
2013-07-10 03:53:00,66.0,65.0,-100.00,West,270,4.0,-999.0,95,0.01,,,-99.99,0.000000,,2013-07-10 07:53:00,
2013-07-10 05:00:00,65.0,62.0,-100.00,West,270,4.0,-999.0,91,-99.99,,,-99.99,0.000000,,2013-07-10 09:00:00,
2013-07-10 05:43:00,65.0,62.0,-100.00,West,270,4.0,-999.0,91,-99.99,,,-99.99,0.000000,,2013-07-10 09:43:00,
2013-07-10 05:53:00,65.0,62.0,-100.00,West,270,4.0,-999.0,91,-99.99,,,-99.99,0.000000,,2013-07-10 09:53:00,
2013-07-10 06:00:00,-999.0,-99.9,-100.00,West,270,5.0,-999.0,-999,-99.99,,,-99.99,,,2013-07-10 10:00:00,
2013-07-10 06:51:00,-999.0,-99.9,-100.00,West,270,5.0,-999.0,-999,-99.99,,,-99.99,,,2013-07-10 10:51:00,
2013-07-10 07:00:00,62.0,58.0,-100.00,West,270,5.0,-999.0,86,-99.99,,,-99.99,10.440000,,2013-07-10 11:00:00,
2013-07-10 07:43:00,62.0,58.0,-100.00,West,270,5.0,-999.0,86,-99.99,,,-99.99,10.440000,,2013-07-10 11:43:00,
2013-07-10 07:52:00,62.0,58.0,-100.00,West,270,5.0,-999.0,86,-99.99,,,-99.99,10.440000,,2013-07-10 11:52:00,
2013-07-10 08:00:00,61.0,57.0,-100.00,WSW,247,3.0,-999.0,87,-99.99,,,-99.99,29.000000,,2013-07-10 12:00:00,
2013-07-10 08:43:00,61.0,57.0,-100.00,WSW,247,3.0,-999.0,87,-99.99,,,-99.99,29.000000,,2013-07-10 12:43:00,
2013-07-10 08:53:00,61.0,57.0,-100.00,WSW,247,3.0,-999.0,87,-99.99,,,-99.99,29.000000,,2013-07-10 12:53:00,
2013-07-10 11:00:00,65.0,57.0,-100.00,WNW,292,5.0,-999.0,74,-99.99,,,-99.99,389.760010,,2013-07-10 15:00:00,
2013-07-10 11:43:00,65.0,57.0,-100.00,WNW,292,5.0,-999.0,74,-99.99,,,-99.99,389.760010,,2013-07-10 15:43:00,
2013-07-10 11:52:00,65.0,57.0,-100.00,WNW,292,5.0,-999.0,74,-99.99,,,-99.99,389.760010,,2013-07-10 15:52:00,
2013-07-10 12:00:00,68.0,57.0,-100.00,WNW,292,5.0,-999.0,70,-99.99,,,-99.99,618.280029,,2013-07-10 16:00:00,
2013-07-10 12:44:00,68.0,57.0,-100.00,WNW,292,5.0,-999.0,70,-99.99,,,-99.99,618.280029,,2013-07-10 16:44:00,
2013-07-10 12:53:00,68.0,57.0,-100.00,WNW,292,5.0,-999.0,70,-99.99,,,-99.99,618.280029,,2013-07-10 16:53:00,
2013-07-10 14:00:00,72.0,57.0,-100.00,WSW,247,5.0,-999.0,60,-99.99,,,-99.99,865.359985,,2013-07-10 18:00:00,
2013-07-10 14:44:00,72.0,57.0,-100.00,WSW,247,5.0,-999.0,60,-99.99,,,-99.99,865.359985,,2013-07-10 18:44:00,
2013-07-10 14:53:00,72.0,57.0,-100.00,WSW,247,5.0,-999.0,60,-99.99,,,-99.99,865.359985,,2013-07-10 18:53:00,
2013-07-10 17:00:00,73.0,55.0,-100.00,West,270,4.0,-999.0,52,-99.99,,,-99.99,650.760010,,2013-07-10 21:00:00,
2013-07-10 17:42:00,73.0,55.0,-100.00,West,270,4.0,-999.0,52,-99.99,,,-99.99,650.760010,,2013-07-10 21:42:00,
2013-07-10 17:52:00,73.0,55.0,-100.00,West,270,4.0,-999.0,52,-99.99,,,-99.99,650.760010,,2013-07-10 21:52:00,
2013-07-10 18:00:00,72.0,53.0,-100.00,West,270,4.0,-999.0,50,-99.99,,,-99.99,557.960022,,2013-07-10 22:00:00,
2013-07-10 18:43:00,72.0,53.0,-100.00,West,270,4.0,-999.0,50,-99.99,,,-99.99,557.960022,,2013-07-10 22:43:00,
2013-07-10 18:53:00,72.0,53.0,-100.00,West,270,4.0,-999.0,50,-99.99,,,-99.99,557.960022,,2013-07-10 22:53:00,
2013-07-10 19:00:00,73.0,52.0,-100.00,WSW,247,3.0,-999.0,49,-99.99,,,-99.99,418.760010,,2013-07-10 23:00:00,
2013-07-10 19:52:00,73.0,52.0,-100.00,WSW,247,3.0,-999.0,49,-99.99,,,-99.99,418.760010,,2013-07-10 23:52:00,
2013-07-10 20:00:00,72.0,52.0,-100.00,WNW,292,1.0,-999.0,49,-99.99,,,-99.99,256.359985,,2013-07-11 00:00:00,
2013-07-10 20:43:00,72.0,52.0,-100.00,WNW,292,1.0,-999.0,49,-99.99,,,-99.99,256.359985,,2013-07-11 00:43:00,
2013-07-10 20:52:00,72.0,52.0,-100.00,WNW,292,1.0,-999.0,49,-99.99,,,-99.99,256.359985,,2013-07-11 00:52:00,
2013-07-10 21:00:00,68.0,52.0,-100.00,WNW,292,0.0,-999.0,56,-99.99,,,-99.99,98.599998,,2013-07-11 01:00:00,
2013-07-10 21:43:00,68.0,52.0,-100.00,WNW,292,0.0,-999.0,56,-99.99,,,-99.99,98.599998,,2013-07-11 01:43:00,
2013-07-10 21:52:00,68.0,52.0,-100.00,WNW,292,0.0,-999.0,56,-99.99,,,-99.99,98.599998,,2013-07-11 01:52:00,
2013-07-10 23:00:00,59.0,53.0,-100.00,SW,225,0.0,-999.0,82,-99.99,,,-99.99,0.000000,,2013-07-11 03:00:00,
2013-07-10 23:42:00,59.0,53.0,-100.00,SW,225,0.0,-999.0,82,-99.99,,,-99.99,0.000000,,2013-07-11 03:42:00,
2013-07-10 23:53:00,59.0,53.0,-100.00,SW,225,0.0,-999.0,82,-99.99,,,-99.99,0.000000,,2013-07-11 03:53:00,